Location: Castillon
(43.0896°N, 0.2156°E)
Time: 04:00:50
(UTC+00:00)

Cosmos 1980 Rocket - Pass Details

Date: 17 October 2021
Orbit: 828 x 851 km, 71.0° (Epoch: 07 December)

Event Time Altitude Azimuth Distance (km) Brightness Sun altitude
Exits shadow 02:11:18 13° 21° (NNE) 2,282 4.9 -43.5°
Maximum altitude 02:13:17 15° 44° (NE) 2,143 4.8 -43.2°
Drops below altitude 10° 02:16:28 10° 79° (ENE) 2,480 5.2 -42.7°
Sets 02:20:04 0° 102° (ESE) 3,410 5.8 -42.2°
